| time (UTC) | temp F | wind direction | speed MPH | gust MPH | rain 1hr in | rain 24hr in | rain mn in | humidity % | barometer mb |
| 20260506001656 | 51 | 247 | 5.0 | 7.0 | 0.00 | 0.02 | 0.02 | 59 | 1011.9 |
| 20260506001154 | 51 | 241 | 7.0 | 10.0 | 0.00 | 0.02 | 0.02 | 59 | 1011.8 |
| 20260506000651 | 51 | 257 | 4.0 | 5.0 | 0.00 | 0.02 | 0.02 | 58 | 1011.8 |
| 20260506000148 | 52 | 261 | 4.0 | 7.0 | 0.00 | 0.02 | 0.02 | 56 | 1011.9 |
| 20260505235646 | 53 | 250 | 6.0 | 10.0 | 0.00 | 0.02 | 0.02 | 55 | 1011.8 |
| 20260505235143 | 51 | 268 | 6.0 | 12.0 | 0.00 | 0.02 | 0.02 | 58 | 1011.9 |
| 20260505234640 | 52 | 247 | 7.0 | 9.0 | 0.00 | 0.02 | 0.02 | 58 | 1011.9 |
| 20260505234137 | 53 | 242 | 6.0 | 7.0 | 0.00 | 0.02 | 0.02 | 55 | 1011.9 |
| 20260505233634 | 53 | 270 | 5.0 | 7.0 | 0.00 | 0.02 | 0.02 | 57 | 1011.9 |
| 20260505233131 | 54 | 273 | 7.0 | 9.0 | 0.00 | 0.02 | 0.02 | 57 | 1011.8 |
| 20260505232629 | 54 | 239 | 6.0 | 9.0 | 0.00 | 0.02 | 0.02 | 57 | 1012.1 |
| 20260505232126 | 55 | 282 | 9.0 | 14.0 | 0.00 | 0.02 | 0.02 | 54 | 1011.8 |
| 20260505231623 | 55 | 239 | 6.0 | 10.0 | 0.00 | 0.02 | 0.02 | 55 | 1011.9 |
| 20260505231122 | 53 | 265 | 3.0 | 5.0 | 0.00 | 0.02 | 0.02 | 62 | 1011.9 |
| 20260505230620 | 53 | 256 | 6.0 | 7.0 | 0.00 | 0.02 | 0.02 | 62 | 1012.1 |
| 20260505230115 | 53 | 258 | 7.0 | 9.0 | 0.00 | 0.02 | 0.02 | 63 | 1011.9 |
| 20260505225612 | 52 | 278 | 6.0 | 7.0 | 0.00 | 0.02 | 0.02 | 64 | 1011.8 |
| 20260505225108 | 52 | 222 | 8.0 | 12.0 | 0.00 | 0.02 | 0.02 | 66 | 1012.1 |
| 20260505224605 | 52 | 248 | 7.0 | 10.0 | 0.00 | 0.02 | 0.02 | 65 | 1011.9 |
| 20260505224102 | 49 | 234 | 7.0 | 9.0 | 0.00 | 0.02 | 0.02 | 68 | 1012.3 |
| 20260505223559 | 49 | 264 | 7.0 | 12.0 | 0.00 | 0.02 | 0.02 | 70 | 1012.4 |
| 20260505223055 | 49 | 286 | 7.0 | 10.0 | 0.00 | 0.02 | 0.02 | 72 | 1012.1 |
| 20260505222552 | 50 | 231 | 12.0 | 15.0 | 0.00 | 0.02 | 0.02 | 70 | 1012.3 |
| 20260505222048 | 51 | 292 | 9.0 | 14.0 | 0.00 | 0.02 | 0.02 | 67 | 1012.3 |
| 20260505221546 | 51 | 308 | 11.0 | 14.0 | 0.00 | 0.02 | 0.02 | 66 | 1012.1 |
| 20260505221042 | 53 | 268 | 9.0 | 12.0 | 0.00 | 0.02 | 0.02 | 62 | 1012.3 |
| 20260505220539 | 53 | 278 | 5.0 | 5.0 | 0.00 | 0.02 | 0.02 | 62 | 1012.4 |
| 20260505220037 | 52 | 283 | 8.0 | 9.0 | 0.00 | 0.02 | 0.02 | 66 | 1012.4 |
| 20260505215535 | 52 | 245 | 8.0 | 9.0 | 0.00 | 0.02 | 0.02 | 65 | 1012.6 |
| 20260505215032 | 51 | 269 | 6.0 | 7.0 | 0.00 | 0.02 | 0.02 | 67 | 1012.6 |
| 20260505214530 | 53 | 250 | 6.0 | 9.0 | 0.00 | 0.02 | 0.02 | 66 | 1012.3 |
| 20260505214027 | 53 | 219 | 11.0 | 14.0 | 0.00 | 0.02 | 0.02 | 62 | 1012.2 |
| 20260505213525 | 55 | 266 | 9.0 | 12.0 | 0.00 | 0.02 | 0.02 | 60 | 1012.4 |
| 20260505213021 | 53 | 230 | 5.0 | 5.0 | 0.00 | 0.02 | 0.02 | 62 | 1012.3 |
| 20260505212517 | 53 | 236 | 8.0 | 10.0 | 0.00 | 0.02 | 0.02 | 63 | 1012.4 |
| 20260505212014 | 54 | 223 | 7.0 | 9.0 | 0.00 | 0.02 | 0.02 | 62 | 1012.6 |
| 20260505211512 | 55 | 233 | 13.0 | 17.0 | 0.00 | 0.02 | 0.02 | 60 | 1012.6 |
| 20260505211008 | 53 | 247 | 9.0 | 10.0 | 0.00 | 0.02 | 0.02 | 63 | 1012.6 |
| 20260505210505 | 54 | 253 | 9.0 | 14.0 | 0.00 | 0.02 | 0.02 | 64 | 1012.8 |
| 20260505210002 | 55 | 261 | 8.0 | 10.0 | 0.00 | 0.02 | 0.02 | 61 | 1012.4 |
| 20260505205500 | 55 | 280 | 7.0 | 12.0 | 0.00 | 0.02 | 0.02 | 62 | 1012.6 |
| 20260505204956 | 55 | 254 | 9.0 | 15.0 | 0.00 | 0.02 | 0.02 | 62 | 1012.3 |
| 20260505204455 | 54 | 268 | 10.0 | 15.0 | 0.00 | 0.02 | 0.02 | 64 | 1012.6 |
| 20260505203952 | 54 | 277 | 9.0 | 12.0 | 0.00 | 0.02 | 0.02 | 65 | 1012.3 |
| 20260505203448 | 54 | 337 | 5.0 | 7.0 | 0.00 | 0.02 | 0.02 | 65 | 1012.7 |
| 20260505202944 | 53 | 259 | 8.0 | 10.0 | 0.00 | 0.02 | 0.02 | 67 | 1013.1 |
| 20260505202441 | 53 | 225 | 7.0 | 12.0 | 0.00 | 0.02 | 0.02 | 67 | 1012.9 |
| 20260505201937 | 52 | 265 | 9.0 | 15.0 | 0.00 | 0.02 | 0.02 | 70 | 1012.7 |
| 20260505201434 | 51 | 281 | 9.0 | 12.0 | 0.00 | 0.02 | 0.02 | 74 | 1012.9 |
| 20260505200932 | 51 | 274 | 9.0 | 12.0 | 0.00 | 0.02 | 0.02 | 73 | 1012.9 |
| 20260505200429 | 51 | 277 | 6.0 | 7.0 | 0.00 | 0.02 | 0.02 | 75 | 1012.6 |
| 20260505195925 | 53 | 258 | 8.0 | 10.0 | 0.00 | 0.02 | 0.02 | 72 | 1012.8 |
| 20260505195422 | 52 | 234 | 11.0 | 15.0 | 0.00 | 0.02 | 0.02 | 73 | 1012.7 |
| 20260505194920 | 51 | 279 | 9.0 | 12.0 | 0.00 | 0.02 | 0.02 | 77 | 1013.2 |
| 20260505194417 | 51 | 285 | 10.0 | 14.0 | 0.00 | 0.02 | 0.02 | 81 | 1013.2 |
| 20260505193917 | 49 | 300 | 8.0 | 10.0 | 0.00 | 0.02 | 0.02 | 86 | 1013.1 |
| 20260505193415 | 50 | 230 | 9.0 | 12.0 | 0.00 | 0.02 | 0.02 | 90 | 1012.8 |
| 20260505192912 | 48 | 309 | 8.0 | 12.0 | 0.00 | 0.02 | 0.02 | 93 | 1013.2 |
| 20260505192410 | 49 | 291 | 9.0 | 14.0 | 0.00 | 0.02 | 0.02 | 94 | 1013.4 |
| 20260505191908 | 48 | 300 | 7.0 | 10.0 | 0.00 | 0.02 | 0.02 | 95 | 1013.1 |
| 20260505191406 | 47 | 266 | 7.0 | 9.0 | 0.07 | 0.02 | 0.02 | 94 | 1013.3 |
| 20260505190903 | 47 | 326 | 8.0 | 12.0 | 0.12 | 0.02 | 0.02 | 92 | 1013.3 |
| 20260505190358 | 47 | 268 | 9.0 | 12.0 | 0.05 | 0.01 | 0.01 | 90 | 1013.7 |
| 20260505185853 | 48 | 244 | 7.0 | 12.0 | 0.00 | 0.00 | 0.00 | 83 | 1013.7 |
| 20260505185350 | 53 | 210 | 8.0 | 9.0 | 0.00 | 0.00 | 0.00 | 68 | 1013.3 |
| 20260505184847 | 54 | 254 | 6.0 | 7.0 | 0.00 | 0.00 | 0.00 | 59 | 1013.2 |
| 20260505184344 | 54 | 285 | 11.0 | 12.0 | 0.00 | 0.00 | 0.00 | 58 | 1013.1 |
| 20260505183841 | 54 | 223 | 7.0 | 9.0 | 0.00 | 0.00 | 0.00 | 58 | 1013.3 |
| 20260505183337 | 55 | 257 | 6.0 | 9.0 | 0.00 | 0.00 | 0.00 | 57 | 1013.3 |
| 20260505182834 | 55 | 244 | 11.0 | 15.0 | 0.00 | 0.00 | 0.00 | 57 | 1013.2 |
| 20260505182331 | 54 | 276 | 12.0 | 15.0 | 0.00 | 0.00 | 0.00 | 59 | 1013.1 |
| 20260505181828 | 55 | 260 | 9.0 | 14.0 | 0.00 | 0.00 | 0.00 | 58 | 1013.3 |
| 20260505181325 | 53 | 228 | 5.0 | 7.0 | 0.00 | 0.00 | 0.00 | 62 | 1013.4 |
| 20260505180821 | 53 | 246 | 7.0 | 7.0 | 0.00 | 0.00 | 0.00 | 61 | 1013.7 |
| 20260505180318 | 53 | 252 | 11.0 | 17.0 | 0.00 | 0.00 | 0.00 | 60 | 1013.6 |
| 20260505175814 | 54 | 255 | 7.0 | 9.0 | 0.00 | 0.00 | 0.00 | 59 | 1013.7 |
| 20260505175311 | 53 | 248 | 6.0 | 9.0 | 0.00 | 0.00 | 0.00 | 59 | 1013.7 |
| 20260505174808 | 53 | 306 | 7.0 | 10.0 | 0.00 | 0.00 | 0.00 | 60 | 1013.4 |
| 20260505174305 | 52 | 243 | 6.0 | 7.0 | 0.00 | 0.00 | 0.00 | 60 | 1013.6 |
| 20260505173801 | 54 | 249 | 10.0 | 14.0 | 0.00 | 0.00 | 0.00 | 57 | 1013.7 |
| 20260505173257 | 54 | 242 | 6.0 | 9.0 | 0.00 | 0.00 | 0.00 | 57 | 1013.6 |
| 20260505172754 | 53 | 243 | 2.0 | 3.0 | 0.00 | 0.00 | 0.00 | 59 | 1013.6 |
| 20260505172252 | 53 | 254 | 3.0 | 3.0 | 0.00 | 0.00 | 0.00 | 58 | 1013.8 |
| 20260505171747 | 51 | 235 | 6.0 | 9.0 | 0.00 | 0.00 | 0.00 | 60 | 1013.9 |
| 20260505171244 | 51 | 251 | 8.0 | 12.0 | 0.00 | 0.00 | 0.00 | 62 | 1013.8 |
| 20260505170740 | 51 | 251 | 3.0 | 3.0 | 0.00 | 0.00 | 0.00 | 60 | 1013.8 |
| 20260505170237 | 50 | 239 | 2.0 | 2.0 | 0.00 | 0.00 | 0.00 | 63 | 1013.8 |
| 20260505165732 | 49 | 239 | 1.0 | 2.0 | 0.00 | 0.00 | 0.00 | 64 | 1013.9 |
| 20260505165229 | 49 | 229 | 2.0 | 2.0 | 0.00 | 0.00 | 0.00 | 63 | 1013.8 |
| 20260505164724 | 50 | 296 | 3.0 | 5.0 | 0.00 | 0.00 | 0.00 | 62 | 1013.8 |
| 20260505164222 | 50 | 255 | 2.0 | 3.0 | 0.00 | 0.00 | 0.00 | 63 | 1013.8 |
| 20260505163720 | 49 | 285 | 1.0 | 2.0 | 0.00 | 0.00 | 0.00 | 65 | 1013.7 |
| 20260505163218 | 49 | 277 | 2.0 | 3.0 | 0.00 | 0.00 | 0.00 | 64 | 1013.9 |
| 20260505162715 | 49 | 90 | 2.0 | 3.0 | 0.00 | 0.00 | 0.00 | 64 | 1013.9 |
| 20260505162212 | 49 | 296 | 1.0 | 2.0 | 0.00 | 0.00 | 0.00 | 63 | 1014.1 |
| 20260505161709 | 49 | 324 | 3.0 | 3.0 | 0.00 | 0.00 | 0.00 | 63 | 1014.1 |
| 20260505161207 | 48 | 62 | 1.0 | 2.0 | 0.00 | 0.00 | 0.00 | 64 | 1014.1 |
| 20260505160704 | 48 | 262 | 2.0 | 2.0 | 0.00 | 0.00 | 0.00 | 63 | 1014.6 |
| 20260505160201 | 48 | 234 | 3.0 | 3.0 | 0.00 | 0.00 | 0.00 | 62 | 1014.3 |
| 20260505153140 | 47 | 266 | 4.0 | 5.0 | 0.00 | 0.00 | 0.00 | 67 | 1014.3 |
| 20260505152637 | 47 | 243 | 7.0 | 9.0 | 0.00 | 0.00 | 0.00 | 69 | 1014.4 |
| 20260505152133 | 47 | 264 | 5.0 | 5.0 | 0.00 | 0.00 | 0.00 | 68 | 1014.2 |
| 20260505151628 | 46 | 246 | 3.0 | 3.0 | 0.00 | 0.00 | 0.00 | 70 | 1014.4 |
| 20260505151126 | 46 | 264 | 5.0 | 5.0 | 0.00 | 0.00 | 0.00 | 71 | 1014.4 |
| 20260505150622 | 46 | 252 | 5.0 | 7.0 | 0.00 | 0.00 | 0.00 | 72 | 1014.4 |
| 20260505150119 | 46 | 261 | 4.0 | 5.0 | 0.00 | 0.00 | 0.00 | 77 | 1014.6 |
| 20260505140548 | 48 | 279 | 5.0 | 5.0 | 0.00 | 0.00 | 0.00 | 60 | 1014.6 |
| 20260505125001 | 47 | 265 | 1.0 | 2.0 | 0.00 | 0.00 | 0.00 | 58 | 1013.9 |
| 20260505124458 | 47 | 241 | 2.0 | 2.0 | 0.00 | 0.00 | 0.00 | 57 | 1013.9 |
| 20260505123954 | 47 | 270 | 2.0 | 3.0 | 0.00 | 0.00 | 0.00 | 57 | 1014.1 |
| 20260505123451 | 47 | 260 | 2.0 | 3.0 | 0.00 | 0.00 | 0.00 | 56 | 1014.3 |
| 20260505122947 | 47 | 254 | 3.0 | 3.0 | 0.00 | 0.00 | 0.00 | 55 | 1014.4 |
| 20260505122444 | 48 | 244 | 3.0 | 5.0 | 0.00 | 0.00 | 0.00 | 55 | 1014.1 |
| 20260505121941 | 48 | 258 | 3.0 | 5.0 | 0.00 | 0.00 | 0.00 | 55 | 1014.3 |
| 20260505121438 | 48 | 285 | 3.0 | 7.0 | 0.00 | 0.00 | 0.00 | 54 | 1014.1 |
| 20260505120933 | 48 | 274 | 3.0 | 3.0 | 0.00 | 0.00 | 0.00 | 54 | 1014.3 |
| 20260505120430 | 48 | 245 | 2.0 | 2.0 | 0.00 | 0.00 | 0.00 | 53 | 1014.4 |
| 20260505115929 | 48 | 276 | 3.0 | 3.0 | 0.00 | 0.00 | 0.00 | 52 | 1014.1 |
| 20260505115426 | 48 | 267 | 2.0 | 2.0 | 0.00 | 0.00 | 0.00 | 51 | 1014.1 |
| 20260505114924 | 48 | 275 | 4.0 | 5.0 | 0.00 | 0.00 | 0.00 | 51 | 1013.9 |
| 20260505114420 | 48 | 267 | 5.0 | 7.0 | 0.00 | 0.00 | 0.00 | 50 | 1013.9 |
| 20260505113916 | 48 | 263 | 3.0 | 3.0 | 0.00 | 0.00 | 0.00 | 49 | 1013.9 |
| 20260505113413 | 48 | 249 | 6.0 | 12.0 | 0.00 | 0.00 | 0.00 | 49 | 1013.9 |
| 20260505112909 | 48 | 256 | 5.0 | 7.0 | 0.00 | 0.00 | 0.00 | 48 | 1014.1 |
| 20260505112407 | 49 | 253 | 4.0 | 5.0 | 0.00 | 0.00 | 0.00 | 48 | 1013.9 |
| 20260505111902 | 49 | 245 | 3.0 | 3.0 | 0.00 | 0.00 | 0.00 | 47 | 1013.8 |
| 20260505111357 | 49 | 270 | 6.0 | 10.0 | 0.00 | 0.00 | 0.00 | 47 | 1014.1 |
| 20260505110854 | 49 | 251 | 4.0 | 5.0 | 0.00 | 0.00 | 0.00 | 46 | 1014.2 |
| 20260505110351 | 49 | 288 | 6.0 | 7.0 | 0.00 | 0.00 | 0.00 | 46 | 1014.2 |
| 20260505101821 | 50 | 271 | 5.0 | 7.0 | 0.00 | 0.00 | 0.00 | 44 | 1013.8 |
| 20260505101316 | 50 | 285 | 3.0 | 3.0 | 0.00 | 0.00 | 0.00 | 43 | 1013.9 |
| 20260505100813 | 49 | 266 | 5.0 | 7.0 | 0.00 | 0.00 | 0.00 | 44 | 1014.1 |
| 20260505100310 | 49 | 253 | 2.0 | 3.0 | 0.00 | 0.00 | 0.00 | 43 | 1013.9 |
| 20260505095805 | 50 | 247 | 3.0 | 3.0 | 0.00 | 0.00 | 0.00 | 43 | 1014.2 |
| 20260505095304 | 49 | 241 | 5.0 | 5.0 | 0.00 | 0.00 | 0.00 | 43 | 1014.1 |
| 20260505094758 | 49 | 256 | 3.0 | 3.0 | 0.00 | 0.00 | 0.00 | 43 | 1013.9 |
| 20260505094256 | 49 | 271 | 0.0 | 0.0 | 0.00 | 0.00 | 0.00 | 43 | 1013.8 |
| 20260505093751 | 49 | 248 | 1.0 | 2.0 | 0.00 | 0.00 | 0.00 | 43 | 1013.8 |
| 20260505093249 | 50 | 251 | 0.0 | 0.0 | 0.00 | 0.00 | 0.00 | 43 | 1013.4 |
| 20260505092745 | 50 | 34 | 4.0 | 5.0 | 0.00 | 0.00 | 0.00 | 43 | 1013.6 |
| 20260505092244 | 50 | 247 | 3.0 | 3.0 | 0.00 | 0.00 | 0.00 | 43 | 1013.7 |
| 20260505091741 | 50 | 249 | 3.0 | 3.0 | 0.00 | 0.00 | 0.00 | 43 | 1013.7 |
| 20260505091239 | 51 | 268 | 5.0 | 9.0 | 0.00 | 0.00 | 0.00 | 43 | 1013.4 |
| 20260505090737 | 51 | 251 | 3.0 | 5.0 | 0.00 | 0.00 | 0.00 | 43 | 1013.7 |
| 20260505090235 | 51 | 268 | 5.0 | 9.0 | 0.00 | 0.00 | 0.00 | 42 | 1013.6 |
| 20260505085732 | 51 | 231 | 6.0 | 9.0 | 0.00 | 0.00 | 0.00 | 42 | 1013.8 |
| 20260505085230 | 51 | 264 | 7.0 | 10.0 | 0.00 | 0.00 | 0.00 | 41 | 1013.6 |
| 20260505084727 | 51 | 318 | 10.0 | 14.0 | 0.00 | 0.00 | 0.00 | 41 | 1013.7 |
| 20260505084226 | 52 | 241 | 10.0 | 14.0 | 0.00 | 0.00 | 0.00 | 41 | 1013.7 |
| 20260505083722 | 52 | 262 | 6.0 | 9.0 | 0.00 | 0.00 | 0.00 | 41 | 1013.9 |
| 20260505083219 | 52 | 292 | 7.0 | 12.0 | 0.00 | 0.00 | 0.00 | 41 | 1013.8 |
| 20260505082715 | 52 | 263 | 5.0 | 7.0 | 0.00 | 0.00 | 0.00 | 41 | 1013.8 |
| 20260505082213 | 52 | 276 | 3.0 | 5.0 | 0.00 | 0.00 | 0.00 | 42 | 1013.9 |
| 20260505081708 | 52 | 296 | 5.0 | 5.0 | 0.00 | 0.00 | 0.00 | 42 | 1014.2 |
| 20260505081206 | 52 | 282 | 6.0 | 9.0 | 0.00 | 0.00 | 0.00 | 42 | 1014.3 |
| 20260505080703 | 52 | 279 | 10.0 | 17.0 | 0.00 | 0.00 | 0.00 | 42 | 1014.1 |
| 20260505080158 | 52 | 285 | 9.0 | 12.0 | 0.00 | 0.00 | 0.00 | 42 | 1014.6 |
| 20260505075654 | 52 | 300 | 6.0 | 7.0 | 0.00 | 0.00 | 0.00 | 42 | 1014.7 |
| 20260505075151 | 53 | 337 | 6.0 | 12.0 | 0.00 | 0.00 | 0.00 | 42 | 1014.4 |
| 20260505074648 | 53 | 283 | 6.0 | 7.0 | 0.00 | 0.00 | 0.00 | 41 | 1014.4 |
| 20260505074145 | 53 | 271 | 5.0 | 7.0 | 0.00 | 0.00 | 0.00 | 41 | 1014.2 |
| 20260505073643 | 53 | 287 | 6.0 | 9.0 | 0.00 | 0.00 | 0.00 | 40 | 1014.2 |
| 20260505073141 | 53 | 208 | 3.0 | 3.0 | 0.00 | 0.00 | 0.00 | 39 | 1014.3 |
| 20260505072636 | 53 | 262 | 6.0 | 9.0 | 0.00 | 0.00 | 0.00 | 39 | 1013.8 |
| 20260505072133 | 53 | 272 | 7.0 | 10.0 | 0.00 | 0.00 | 0.00 | 39 | 1014.2 |
| 20260505071629 | 53 | 239 | 6.0 | 9.0 | 0.00 | 0.00 | 0.00 | 39 | 1013.9 |
| 20260505071127 | 53 | 224 | 5.0 | 5.0 | 0.00 | 0.00 | 0.00 | 39 | 1014.3 |
| 20260505070624 | 53 | 283 | 9.0 | 14.0 | 0.00 | 0.00 | 0.00 | 39 | 1014.2 |
| 20260505070120 | 54 | 260 | 5.0 | 7.0 | 0.00 | 0.00 | 0.00 | 39 | 1014.6 |
| 20260505065616 | 54 | 290 | 8.0 | 12.0 | 0.00 | 0.00 | 0.00 | 38 | 1014.4 |
| 20260505065113 | 54 | 260 | 7.0 | 10.0 | 0.00 | 0.00 | 0.00 | 38 | 1014.2 |
| 20260505064610 | 54 | 258 | 6.0 | 7.0 | 0.00 | 0.00 | 0.00 | 37 | 1014.2 |
| 20260505064108 | 54 | 262 | 8.0 | 10.0 | 0.00 | 0.00 | 0.00 | 37 | 1014.1 |
| 20260505063605 | 55 | 257 | 7.0 | 10.0 | 0.00 | 0.00 | 0.00 | 36 | 1014.2 |
| 20260505063101 | 55 | 228 | 11.0 | 15.0 | 0.00 | 0.00 | 0.00 | 36 | 1014.1 |
| 20260505062557 | 55 | 231 | 6.0 | 9.0 | 0.00 | 0.00 | 0.00 | 35 | 1014.4 |
| 20260505062055 | 55 | 303 | 10.0 | 12.0 | 0.00 | 0.00 | 0.00 | 35 | 1014.3 |
| 20260505061552 | 55 | 271 | 5.0 | 7.0 | 0.00 | 0.00 | 0.00 | 34 | 1014.4 |
| 20260505061050 | 55 | 272 | 9.0 | 12.0 | 0.00 | 0.00 | 0.00 | 34 | 1014.4 |
| 20260505060547 | 55 | 240 | 7.0 | 12.0 | 0.00 | 0.00 | 0.00 | 33 | 1014.3 |
| 20260505060044 | 56 | 236 | 8.0 | 14.0 | 0.00 | 0.00 | 0.00 | 33 | 1014.7 |
| 20260505055539 | 56 | 266 | 7.0 | 10.0 | 0.00 | 0.00 | 0.00 | 33 | 1014.4 |
| 20260505055036 | 56 | 258 | 6.0 | 9.0 | 0.00 | 0.00 | 0.00 | 33 | 1014.1 |
| 20260505054533 | 56 | 245 | 8.0 | 14.0 | 0.00 | 0.00 | 0.00 | 33 | 1014.4 |
| 20260505054032 | 56 | 323 | 6.0 | 9.0 | 0.00 | 0.00 | 0.00 | 33 | 1014.3 |
| 20260505053528 | 56 | 275 | 5.0 | 7.0 | 0.00 | 0.00 | 0.00 | 33 | 1014.4 |
| 20260505053025 | 56 | 248 | 8.0 | 10.0 | 0.00 | 0.00 | 0.00 | 32 | 1014.2 |
| 20260505052522 | 57 | 254 | 7.0 | 10.0 | 0.00 | 0.00 | 0.00 | 32 | 1014.6 |
| 20260505052020 | 57 | 317 | 11.0 | 12.0 | 0.00 | 0.00 | 0.00 | 32 | 1014.3 |
| 20260505051516 | 57 | 258 | 5.0 | 7.0 | 0.00 | 0.00 | 0.00 | 31 | 1014.3 |
| 20260505051014 | 57 | 236 | 7.0 | 10.0 | 0.00 | 0.00 | 0.00 | 31 | 1014.2 |
| 20260505050512 | 57 | 262 | 8.0 | 14.0 | 0.00 | 0.00 | 0.00 | 31 | 1013.9 |
| 20260505041440 | 58 | 248 | 7.0 | 12.0 | 0.00 | 0.00 | 0.00 | 31 | 1013.9 |
| 20260505040937 | 58 | 308 | 7.0 | 10.0 | 0.00 | 0.00 | 0.00 | 31 | 1014.2 |
| 20260505040434 | 59 | 265 | 7.0 | 14.0 | 0.00 | 0.00 | 0.00 | 31 | 1014.1 |
| 20260505035931 | 59 | 220 | 8.0 | 14.0 | 0.00 | 0.00 | 0.00 | 30 | 1014.1 |
| 20260505035427 | 59 | 281 | 11.0 | 14.0 | 0.00 | 0.00 | 0.00 | 30 | 1014.1 |
| 20260505034925 | 59 | 281 | 7.0 | 9.0 | 0.00 | 0.00 | 0.00 | 30 | 1014.1 |
| 20260505034421 | 59 | 214 | 8.0 | 10.0 | 0.00 | 0.00 | 0.00 | 30 | 1014.1 |
| 20260505033918 | 59 | 295 | 10.0 | 14.0 | 0.00 | 0.00 | 0.00 | 30 | 1014.1 |
| 20260505033415 | 59 | 283 | 7.0 | 10.0 | 0.00 | 0.00 | 0.00 | 29 | 1014.1 |
| 20260505032913 | 60 | 234 | 9.0 | 10.0 | 0.00 | 0.00 | 0.00 | 29 | 1013.8 |
| 20260505032410 | 60 | 238 | 9.0 | 14.0 | 0.00 | 0.00 | 0.00 | 29 | 1013.8 |
| 20260505031906 | 60 | 270 | 7.0 | 10.0 | 0.00 | 0.00 | 0.00 | 29 | 1013.7 |
| 20260505031403 | 60 | 255 | 11.0 | 15.0 | 0.00 | 0.00 | 0.00 | 28 | 1013.8 |
| 20260505030900 | 60 | 210 | 11.0 | 15.0 | 0.00 | 0.00 | 0.00 | 28 | 1013.9 |
| 20260505030356 | 60 | 257 | 10.0 | 14.0 | 0.00 | 0.00 | 0.00 | 28 | 1013.7 |
| 20260505025851 | 60 | 256 | 8.0 | 10.0 | 0.00 | 0.00 | 0.00 | 28 | 1013.7 |
| 20260505025349 | 60 | 263 | 8.0 | 12.0 | 0.00 | 0.00 | 0.00 | 27 | 1013.8 |
| 20260505024848 | 60 | 334 | 9.0 | 12.0 | 0.00 | 0.00 | 0.00 | 27 | 1013.7 |
| 20260505024345 | 61 | 314 | 12.0 | 15.0 | 0.00 | 0.00 | 0.00 | 27 | 1013.7 |
| 20260505023842 | 61 | 267 | 9.0 | 10.0 | 0.00 | 0.00 | 0.00 | 27 | 1013.6 |
| 20260505023339 | 61 | 276 | 8.0 | 10.0 | 0.00 | 0.00 | 0.00 | 27 | 1013.6 |
| 20260505022836 | 61 | 277 | 11.0 | 15.0 | 0.00 | 0.00 | 0.00 | 27 | 1013.7 |
| 20260505022333 | 61 | 258 | 8.0 | 12.0 | 0.00 | 0.00 | 0.00 | 27 | 1013.6 |
| 20260505021831 | 61 | 248 | 8.0 | 12.0 | 0.00 | 0.00 | 0.00 | 27 | 1013.3 |
| 20260505021327 | 61 | 248 | 5.0 | 9.0 | 0.00 | 0.00 | 0.00 | 27 | 1013.4 |
| 20260505020823 | 61 | 258 | 7.0 | 9.0 | 0.00 | 0.00 | 0.00 | 28 | 1013.6 |
| 20260505020319 | 61 | 266 | 7.0 | 10.0 | 0.00 | 0.00 | 0.00 | 27 | 1013.4 |
| 20260505015815 | 61 | 251 | 6.0 | 7.0 | 0.00 | 0.00 | 0.00 | 27 | 1013.4 |
| 20260505015313 | 61 | 276 | 11.0 | 17.0 | 0.00 | 0.00 | 0.00 | 27 | 1013.3 |
| 20260505014810 | 62 | 247 | 7.0 | 9.0 | 0.00 | 0.00 | 0.00 | 26 | 1013.6 |
| 20260505014307 | 62 | 256 | 5.0 | 7.0 | 0.00 | 0.00 | 0.00 | 26 | 1013.4 |
| 20260505013803 | 61 | 242 | 6.0 | 7.0 | 0.00 | 0.00 | 0.00 | 26 | 1013.6 |
| 20260505013301 | 62 | 294 | 4.0 | 5.0 | 0.00 | 0.00 | 0.00 | 25 | 1013.4 |
| 20260505012759 | 62 | 267 | 9.0 | 12.0 | 0.00 | 0.00 | 0.00 | 25 | 1013.3 |
| 20260505012256 | 62 | 255 | 3.0 | 5.0 | 0.00 | 0.00 | 0.00 | 25 | 1013.1 |
| 20260505011752 | 62 | 278 | 7.0 | 12.0 | 0.00 | 0.00 | 0.00 | 25 | 1013.1 |
| 20260505011249 | 62 | 299 | 5.0 | 7.0 | 0.00 | 0.00 | 0.00 | 24 | 1013.2 |
| 20260505010744 | 62 | 271 | 5.0 | 7.0 | 0.00 | 0.00 | 0.00 | 24 | 1012.9 |
| 20260505010241 | 62 | 234 | 7.0 | 10.0 | 0.00 | 0.00 | 0.00 | 24 | 1013.3 |
| 20260505005737 | 62 | 270 | 7.0 | 9.0 | 0.00 | 0.00 | 0.00 | 24 | 1012.9 |
| 20260505005234 | 62 | 273 | 8.0 | 10.0 | 0.00 | 0.00 | 0.00 | 23 | 1013.2 |
| 20260505004732 | 62 | 269 | 7.0 | 10.0 | 0.00 | 0.00 | 0.00 | 23 | 1013.1 |
| 20260505004228 | 62 | 293 | 7.0 | 9.0 | 0.00 | 0.00 | 0.00 | 23 | 1012.9 |
| 20260505003725 | 63 | 239 | 5.0 | 7.0 | 0.00 | 0.00 | 0.00 | 22 | 1012.9 |
| 20260505003223 | 63 | 243 | 6.0 | 7.0 | 0.00 | 0.00 | 0.00 | 22 | 1013.2 |
| 20260505002719 | 63 | 224 | 12.0 | 14.0 | 0.00 | 0.00 | 0.00 | 22 | 1013.2 |
| 20260505002217 | 63 | 254 | 6.0 | 7.0 | 0.00 | 0.00 | 0.00 | 22 | 1013.4 |